Home   Weather   Binningen   Past weeks

Flag for Switzerland Past Weather in Binningen, Basel-Land, Switzerland — Yesterday and Last 2 Weeks

Now
57 °F

Partly sunny.


Feels Like: 57 °F
Forecast: 56 / 81 °F
Wind: 1 mph from West

Location: Bale-Mulhouse

Current Time: Sep 1, 2016 at 7:45:41 AM

Latest Report: Sep 1, 2016 at 7:00 AM


Visibility: 7 mi

Pressure: 30.21 "Hg

Humidity: 95%

Dew Point: 55 °F

Location of BinningenLocation

Past Weather in Binningen — Graph

°F

Binningen Temperature Yesterday

Maximum temperature yesterday: 84 °F (at 4:00 PM)
Minimum temperature yesterday: 53 °F (at 7:00 AM)
Average temperature yesterday: 69 °F

High & Low Weather Summary for the Past Weeks

 TemperatureHumidityPressure
High95 °F (Aug 27, 5:00 PM)98% (Aug 18, 2:00 AM)30.38 "Hg (Aug 18, 2:00 AM)
Low52 °F (Aug 23, 6:00 AM)20% (Aug 27, 6:00 PM)29.79 "Hg (Aug 17, 6:00 PM)
Average69 °F73%30.07 "Hg
* Reported Aug 17 6:00 AM — Sep 1 6:00 AM, Binningen, Weather by CustomWeather, © 2016

Note: Actual official high and low records may vary slightly from our data, if they occured in-between our weather recording intervals... More about our weather records

Advertising

Binningen Weather History for the Previous 24 Hours

Scroll right to see more
 ConditionsComfort  
Time TempWeatherWind HumidityBarometerVisibility
6:00 AM
Thu, Sep 1
58 °FPassing clouds.1 mph94%30.19 "Hg7 mi
5:00 AM58 °FPassing clouds.1 mph95%30.19 "Hg7 mi
3:00 AM61 °FCool.2 mph91%30.18 "Hg8 mi
2:00 AM63 °FMild.2 mph89%30.18 "Hg14 mi
1:00 AM64 °FMild.3 mph88%30.17 "Hg13 mi
12:00 AM67 °FPassing clouds.1 mph79%30.15 "Hg25 mi
11:00 PM
Wed, Aug 31
67 °FPassing clouds.7 mph79%30.14 "Hg25 mi
10:00 PM70 °FPassing clouds.6 mph70%30.13 "Hg25 mi
9:00 PM71 °FPassing clouds.6 mph70%30.11 "Hg25 mi
8:00 PM78 °FPartly sunny.3 mph56%30.07 "Hg25 mi
7:00 PM82 °FPartly sunny.3 mph46%30.05 "Hg25 mi
6:00 PM80 °FPartly sunny.5 mph49%30.06 "Hg25 mi
5:00 PM83 °FScattered clouds.7 mph43%30.06 "Hg25 mi
4:00 PM84 °FPassing clouds.7 mph40%30.06 "Hg25 mi
3:00 PM82 °FPassing clouds.5 mph43%30.08 "Hg22 mi
2:00 PM81 °FPassing clouds.3 mph46%30.10 "Hg19 mi
1:00 PM78 °FPassing clouds.3 mph54%30.11 "Hg19 mi
12:00 PM76 °FPassing clouds.2 mph55%30.12 "Hg16 mi
11:00 AM72 °FPassing clouds.3 mph62%30.13 "Hg16 mi
10:00 AM69 °FPassing clouds.3 mph67%30.14 "Hg16 mi
9:00 AM64 °FPassing clouds.2 mph81%30.14 "Hg16 mi
8:00 AM56 °FPassing clouds.2 mph96%30.16 "Hg16 mi
7:00 AM53 °FPassing clouds.2 mph95%30.16 "Hg16 mi
Weather by CustomWeather, © 2016

See weather overviewHow to use our weather pages